Flag for Germany Weather past 2 weeks in Herford, North Rhine-Westphalia, Germany

Now
73 °F

Passing clouds.


Feels Like: 77 °F
Forecast: 54 / 77 °F
Wind: 8 mph from Southeast

Location: Bueckeburg

Current Time: Sep 17, 2014 at 6:22:53 PM

Latest Report: Sep 17, 2014 at 5:20 PM


Visibility: N/A

Pressure: 29.92 "Hg

Humidity: 57%

Dew point: 57 °F

Location of HerfordLocation

Historic Weather in Herford — Graph

°F

Herford temperature yesterday

Maximum temperature yesterday: 75 °F (at 2:20 PM)
Minimum temperature yesterday: 57 °F (at 4:20 AM)
Average temperature yesterday: 65 °F

Past Weeks' High & Low Weather Summary

 TemperatureHumidityPressure
High77 °F (Sep 5, 2:20 PM)100% (Sep 2, 9:20 PM)30.30 "Hg (Sep 2, 9:20 PM)
Low48 °F (Sep 12, 1:20 AM)50% (Sep 17, 3:20 PM)29.86 "Hg (Sep 6, 4:20 PM)
Average62 °F84%30.07 "Hg
* Reported Sep 2 4:20 PM — Sep 17 4:20 PM, Herford, Weather by CustomWeather, © 2014

Note: Actual official high and low records may vary slightly from our data, if they occured in-between our weather recording intervals... More about our weather records

Advertising

Herford weather history for previous 24 hours

 ConditionsComfort  
Time TempWeatherWind HumidityBarometerVisibility
4:20 PM
Sep 17
75 °FPassing clouds.13 mph54%29.92 "HgN/A
3:20 PM75 °FPassing clouds.13 mph50%29.92 "HgN/A
2:20 PM73 °FPassing clouds.9 mph57%29.95 "HgN/A
1:20 PM73 °FPassing clouds.15 mph53%29.95 "HgN/A
12:20 PM72 °FPassing clouds.12 mph61%29.95 "HgN/A
11:20 AM72 °FPassing clouds.3 mph65%29.98 "Hg6 mi
10:20 AM66 °FPassing clouds.3 mph83%29.98 "Hg4 mi
10:03 AM64 °FPassing clouds.1 mph88%29.98 "Hg4 mi
9:20 AM63 °FFog.1 mph88%29.98 "Hg2 mi
8:20 AM59 °FFog.1 mph94%29.98 "Hg1 mi
7:20 AM57 °FFog.1 mph100%29.98 "Hg1 mi
6:52 AM57 °FFog.1 mph100%29.98 "Hg1 mi
6:20 AM57 °FFog.2 mph100%29.98 "Hg2 mi
5:20 AM59 °FPassing clouds.3 mph94%29.98 "Hg4 mi
4:20 AM59 °FPassing clouds.5 mph94%29.98 "Hg4 mi
3:20 AM61 °FPassing clouds.5 mph94%29.98 "Hg4 mi
2:20 AM64 °FPassing clouds.3 mph83%29.98 "Hg5 mi
1:20 AM63 °FMild.3 mph88%29.98 "Hg5 mi
12:20 AM66 °FPassing clouds.5 mph78%30.01 "Hg6 mi
11:20 PM
Sep 16
68 °FMild.8 mph78%30.01 "HgN/A
10:20 PM68 °FPassing clouds.8 mph73%30.01 "HgN/A
9:20 PM70 °FPassing clouds.8 mph69%30.01 "HgN/A
8:20 PM68 °FScattered clouds.6 mph78%30.01 "HgN/A
7:20 PM72 °FScattered clouds.8 mph73%29.98 "HgN/A
6:20 PM73 °FPassing clouds.9 mph65%29.98 "HgN/A
Weather by CustomWeather, © 2014

See weather overviewHow to use our weather pages